Time,TemperatureF,DewpointF,PressureIn,WindDirection,WindDirectionDegrees,WindSpeedMPH,WindSpeedGustMPH,Humidity,HourlyPrecipIn,Conditions,Clouds,dailyrainin,SoftwareType,DateUTC
2013-09-25 00:05:00,54.0,48.0,29.90,SE,134,1.0,2.0,81,0.00,,,0.00,weatherlink.com 1.10,2013-09-25 04:05:00,
2013-09-25 00:20:00,53.7,48.0,29.90,ESE,102,0.0,2.0,81,0.00,,,0.00,weatherlink.com 1.10,2013-09-25 04:20:00,
2013-09-25 00:35:00,52.8,47.0,29.90,ESE,103,0.0,1.0,82,0.00,,,0.00,weatherlink.com 1.10,2013-09-25 04:35:00,
2013-09-25 00:51:00,51.8,48.0,29.90,ESE,103,0.0,0.0,85,0.00,,,0.00,weatherlink.com 1.10,2013-09-25 04:51:00,
2013-09-25 01:05:00,51.2,48.0,29.90,ESE,103,0.0,0.0,87,0.00,,,0.00,weatherlink.com 1.10,2013-09-25 05:05:00,
2013-09-25 01:20:00,51.0,48.0,29.90,East,98,0.0,0.0,88,0.00,,,0.00,weatherlink.com 1.10,2013-09-25 05:20:00,
2013-09-25 01:35:00,51.2,48.0,29.90,North,11,0.0,1.0,89,0.00,,,0.00,weatherlink.com 1.10,2013-09-25 05:35:00,
2013-09-25 01:50:00,51.2,48.0,29.89,North,11,0.0,0.0,89,0.00,,,0.00,weatherlink.com 1.10,2013-09-25 05:50:00,
2013-09-25 02:05:00,51.1,48.0,29.90,NNW,347,0.0,0.0,90,0.00,,,0.00,weatherlink.com 1.10,2013-09-25 06:05:00,
2013-09-25 02:20:00,50.8,48.0,29.90,NNW,347,0.0,0.0,91,0.00,,,0.00,weatherlink.com 1.10,2013-09-25 06:20:00,
2013-09-25 02:35:00,51.1,49.0,29.89,NNW,347,0.0,0.0,91,0.00,,,0.00,weatherlink.com 1.10,2013-09-25 06:35:00,
2013-09-25 02:50:00,51.0,48.0,29.89,NNW,347,0.0,0.0,90,0.00,,,0.00,weatherlink.com 1.10,2013-09-25 06:50:00,
2013-09-25 03:05:00,50.6,48.0,29.89,NNW,347,0.0,0.0,91,0.00,,,0.00,weatherlink.com 1.10,2013-09-25 07:05:00,
2013-09-25 03:20:00,50.5,48.0,29.89,NW,326,0.0,1.0,92,0.00,,,0.00,weatherlink.com 1.10,2013-09-25 07:20:00,
2013-09-25 03:35:00,50.0,48.0,29.89,NW,314,0.0,0.0,92,0.00,,,0.00,weatherlink.com 1.10,2013-09-25 07:35:00,
2013-09-25 03:50:00,49.3,47.0,29.88,NW,314,0.0,0.0,92,0.00,,,0.00,weatherlink.com 1.10,2013-09-25 07:50:00,
2013-09-25 04:05:00,48.7,47.0,29.88,NW,314,0.0,0.0,92,0.00,,,0.00,weatherlink.com 1.10,2013-09-25 08:05:00,
2013-09-25 04:20:00,48.7,47.0,29.88,NW,314,0.0,0.0,93,0.00,,,0.00,weatherlink.com 1.10,2013-09-25 08:20:00,
2013-09-25 04:35:00,47.6,46.0,29.89,West,266,0.0,0.0,94,0.00,,,0.00,weatherlink.com 1.10,2013-09-25 08:35:00,
2013-09-25 04:50:00,-999.0,-99.9,29.89,North,-999,-999.0,-999.0,-999,0.00,,,0.00,weatherlink.com 1.10,2013-09-25 08:50:00,
2013-09-25 05:05:00,-999.0,-99.9,29.89,North,-999,-999.0,-999.0,-999,0.00,,,0.00,weatherlink.com 1.10,2013-09-25 09:05:00,
2013-09-25 05:20:00,-999.0,-99.9,29.88,North,-999,-999.0,-999.0,-999,0.00,,,0.00,weatherlink.com 1.10,2013-09-25 09:20:00,
2013-09-25 05:35:00,-999.0,-99.9,29.88,North,-999,-999.0,-999.0,-999,0.00,,,0.00,weatherlink.com 1.10,2013-09-25 09:35:00,
2013-09-25 05:50:00,-999.0,-99.9,29.88,North,-999,-999.0,-999.0,-999,0.00,,,0.00,weatherlink.com 1.10,2013-09-25 09:50:00,
2013-09-25 06:05:00,-999.0,-99.9,29.88,North,-999,-999.0,-999.0,-999,0.00,,,0.00,weatherlink.com 1.10,2013-09-25 10:05:00,
2013-09-25 06:20:00,-999.0,-99.9,29.88,North,-999,-999.0,-999.0,-999,0.00,,,0.00,weatherlink.com 1.10,2013-09-25 10:20:00,
2013-09-25 06:36:00,-999.0,-99.9,29.89,North,-999,-999.0,-999.0,-999,0.00,,,0.00,weatherlink.com 1.10,2013-09-25 10:36:00,
2013-09-25 06:51:00,-999.0,-99.9,29.89,North,-999,-999.0,-999.0,-999,0.00,,,0.00,weatherlink.com 1.10,2013-09-25 10:51:00,
2013-09-25 07:06:00,-999.0,-99.9,29.89,North,-999,-999.0,-999.0,-999,0.00,,,0.00,weatherlink.com 1.10,2013-09-25 11:06:00,
2013-09-25 07:21:00,-999.0,-99.9,29.89,North,-999,-999.0,-999.0,-999,0.00,,,0.00,weatherlink.com 1.10,2013-09-25 11:21:00,
2013-09-25 07:36:00,-999.0,-99.9,29.89,North,-999,-999.0,-999.0,-999,0.00,,,0.00,weatherlink.com 1.10,2013-09-25 11:36:00,
2013-09-25 07:51:00,-999.0,-99.9,29.89,North,-999,-999.0,-999.0,-999,0.00,,,0.00,weatherlink.com 1.10,2013-09-25 11:51:00,
2013-09-25 08:06:00,-999.0,-99.9,29.89,North,-999,-999.0,-999.0,-999,0.00,,,0.00,weatherlink.com 1.10,2013-09-25 12:06:00,
2013-09-25 08:21:00,-999.0,-99.9,29.89,North,-999,-999.0,-999.0,-999,0.00,,,0.00,weatherlink.com 1.10,2013-09-25 12:21:00,
2013-09-25 08:36:00,-999.0,-99.9,29.90,North,-999,-999.0,-999.0,-999,0.00,,,0.00,weatherlink.com 1.10,2013-09-25 12:36:00,
2013-09-25 08:51:00,56.2,50.0,29.90,SW,221,1.0,-999.0,80,0.00,,,0.00,weatherlink.com 1.10,2013-09-25 12:51:00,
2013-09-25 09:06:00,57.3,51.0,29.90,SSW,210,1.0,5.0,78,0.00,,,0.00,weatherlink.com 1.10,2013-09-25 13:06:00,
2013-09-25 09:21:00,57.9,50.0,29.91,SW,220,2.0,4.0,76,0.00,,,0.00,weatherlink.com 1.10,2013-09-25 13:21:00,
2013-09-25 09:36:00,58.7,50.0,29.90,WSW,246,3.0,6.0,74,0.00,,,0.00,weatherlink.com 1.10,2013-09-25 13:36:00,
2013-09-25 09:51:00,60.2,52.0,29.91,SW,226,2.0,4.0,73,0.00,,,0.00,weatherlink.com 1.10,2013-09-25 13:51:00,
2013-09-25 10:06:00,61.0,52.0,29.90,SSE,162,1.0,4.0,71,0.00,,,0.00,weatherlink.com 1.10,2013-09-25 14:06:00,
2013-09-25 10:22:00,61.6,51.0,29.90,WSW,239,1.0,4.0,69,0.00,,,0.00,weatherlink.com 1.10,2013-09-25 14:22:00,
2013-09-25 10:37:00,62.1,51.0,29.90,ESE,116,3.0,4.0,68,0.00,,,0.00,weatherlink.com 1.10,2013-09-25 14:37:00,
2013-09-25 10:52:00,63.0,53.0,29.89,South,187,2.0,5.0,69,0.00,,,0.00,weatherlink.com 1.10,2013-09-25 14:52:00,
2013-09-25 11:07:00,63.4,52.0,29.89,South,172,2.0,5.0,66,0.00,,,0.00,weatherlink.com 1.10,2013-09-25 15:07:00,
2013-09-25 11:22:00,64.8,53.0,29.89,SW,236,0.0,6.0,65,0.00,,,0.00,weatherlink.com 1.10,2013-09-25 15:22:00,
2013-09-25 11:37:00,65.0,52.0,29.89,WSW,239,1.0,5.0,63,0.00,,,0.00,weatherlink.com 1.10,2013-09-25 15:37:00,
2013-09-25 11:52:00,65.6,52.0,29.89,SW,232,1.0,5.0,62,0.00,,,0.00,weatherlink.com 1.10,2013-09-25 15:52:00,
2013-09-25 12:07:00,66.1,52.0,29.89,WSW,243,1.0,6.0,60,0.00,,,0.00,weatherlink.com 1.10,2013-09-25 16:07:00,
2013-09-25 12:22:00,67.3,54.0,29.88,WSW,250,3.0,5.0,62,0.00,,,0.00,weatherlink.com 1.10,2013-09-25 16:22:00,
2013-09-25 12:37:00,67.4,51.0,29.88,SW,225,5.0,7.0,56,0.00,,,0.00,weatherlink.com 1.10,2013-09-25 16:37:00,
2013-09-25 12:52:00,68.1,51.0,29.88,WSW,238,2.0,7.0,55,0.00,,,0.00,weatherlink.com 1.10,2013-09-25 16:52:00,
2013-09-25 13:07:00,68.1,55.0,29.88,SSW,193,1.0,4.0,64,0.00,,,0.00,weatherlink.com 1.10,2013-09-25 17:07:00,
2013-09-25 13:22:00,67.7,55.0,29.87,South,187,2.0,5.0,64,0.00,,,0.00,weatherlink.com 1.10,2013-09-25 17:22:00,
2013-09-25 13:37:00,67.3,55.0,29.87,South,184,2.0,4.0,64,0.00,,,0.00,weatherlink.com 1.10,2013-09-25 17:37:00,
2013-09-25 13:52:00,67.3,56.0,29.86,SSE,165,2.0,4.0,67,0.00,,,0.00,weatherlink.com 1.10,2013-09-25 17:52:00,
2013-09-25 14:07:00,67.1,56.0,29.86,South,177,2.0,4.0,68,0.00,,,0.00,weatherlink.com 1.10,2013-09-25 18:07:00,
2013-09-25 14:22:00,66.4,55.0,29.85,South,172,1.0,6.0,68,0.00,,,0.00,weatherlink.com 1.10,2013-09-25 18:22:00,
2013-09-25 14:37:00,67.3,56.0,29.85,South,169,0.0,4.0,67,0.00,,,0.00,weatherlink.com 1.10,2013-09-25 18:37:00,
2013-09-25 14:52:00,67.2,55.0,29.85,SW,224,3.0,5.0,66,0.00,,,0.00,weatherlink.com 1.10,2013-09-25 18:52:00,
2013-09-25 15:07:00,66.4,55.0,29.85,SW,236,4.0,7.0,68,0.00,,,0.00,weatherlink.com 1.10,2013-09-25 19:07:00,
2013-09-25 15:22:00,66.6,54.0,29.84,SSW,201,3.0,9.0,64,0.00,,,0.00,weatherlink.com 1.10,2013-09-25 19:22:00,
2013-09-25 15:37:00,67.1,53.0,29.84,SSW,207,1.0,8.0,60,0.00,,,0.00,weatherlink.com 1.10,2013-09-25 19:37:00,
2013-09-25 15:52:00,67.5,53.0,29.84,SSW,203,2.0,7.0,60,0.00,,,0.00,weatherlink.com 1.10,2013-09-25 19:52:00,
2013-09-25 16:07:00,67.3,54.0,29.84,WSW,239,2.0,8.0,62,0.00,,,0.00,weatherlink.com 1.10,2013-09-25 20:07:00,
2013-09-25 16:38:00,67.3,54.0,29.85,SW,235,2.0,5.0,62,0.00,,,0.00,weatherlink.com 1.10,2013-09-25 20:38:00,
2013-09-25 16:52:00,66.8,54.0,29.85,West,260,2.0,7.0,64,0.00,,,0.00,weatherlink.com 1.10,2013-09-25 20:52:00,
2013-09-25 17:07:00,66.4,55.0,29.85,SW,221,1.0,4.0,67,0.00,,,0.00,weatherlink.com 1.10,2013-09-25 21:07:00,
2013-09-25 17:22:00,66.2,54.0,29.85,WSW,242,1.0,4.0,66,0.00,,,0.00,weatherlink.com 1.10,2013-09-25 21:22:00,
2013-09-25 17:37:00,66.1,55.0,29.86,West,264,0.0,4.0,67,0.00,,,0.00,weatherlink.com 1.10,2013-09-25 21:37:00,
2013-09-25 17:52:00,66.1,56.0,29.85,SW,233,0.0,2.0,69,0.00,,,0.00,weatherlink.com 1.10,2013-09-25 21:52:00,
2013-09-25 18:07:00,65.4,55.0,29.85,West,266,0.0,2.0,68,0.00,,,0.00,weatherlink.com 1.10,2013-09-25 22:07:00,
2013-09-25 18:22:00,64.5,55.0,29.86,WSW,250,0.0,2.0,71,0.00,,,0.00,weatherlink.com 1.10,2013-09-25 22:22:00,
2013-09-25 18:37:00,63.4,55.0,29.86,WSW,245,1.0,2.0,74,0.00,,,0.00,weatherlink.com 1.10,2013-09-25 22:37:00,
2013-09-25 18:52:00,63.1,55.0,29.86,SW,235,1.0,2.0,76,0.00,,,0.00,weatherlink.com 1.10,2013-09-25 22:52:00,
2013-09-25 19:07:00,62.7,56.0,29.86,WSW,239,0.0,2.0,78,0.00,,,0.00,weatherlink.com 1.10,2013-09-25 23:07:00,
2013-09-25 19:22:00,61.7,56.0,29.87,NE,46,0.0,2.0,80,0.00,,,0.00,weatherlink.com 1.10,2013-09-25 23:22:00,
2013-09-25 19:37:00,60.6,56.0,29.87,ENE,78,0.0,1.0,84,0.00,,,0.00,weatherlink.com 1.10,2013-09-25 23:37:00,
2013-09-25 19:53:00,60.2,56.0,29.87,ENE,78,0.0,1.0,85,0.00,,,0.00,weatherlink.com 1.10,2013-09-25 23:53:00,
2013-09-25 20:07:00,60.9,56.0,29.88,ENE,75,0.0,1.0,84,0.00,,,0.00,weatherlink.com 1.10,2013-09-26 00:07:00,
2013-09-25 20:22:00,61.3,57.0,29.89,ENE,75,0.0,1.0,86,0.00,,,0.00,weatherlink.com 1.10,2013-09-26 00:22:00,
2013-09-25 20:37:00,62.9,59.0,29.89,East,84,3.0,4.0,88,0.00,,,0.00,weatherlink.com 1.10,2013-09-26 00:37:00,
2013-09-25 20:52:00,62.8,59.0,29.89,East,81,5.0,9.0,86,0.00,,,0.00,weatherlink.com 1.10,2013-09-26 00:52:00,
2013-09-25 21:07:00,62.6,58.0,29.90,East,82,5.0,8.0,84,0.00,,,0.00,weatherlink.com 1.10,2013-09-26 01:07:00,
2013-09-25 21:22:00,62.8,58.0,29.90,East,82,6.0,7.0,84,0.00,,,0.00,weatherlink.com 1.10,2013-09-26 01:22:00,
2013-09-25 21:37:00,62.3,57.0,29.91,East,91,7.0,8.0,83,0.00,,,0.00,weatherlink.com 1.10,2013-09-26 01:37:00,
2013-09-25 21:52:00,62.1,57.0,29.91,East,85,6.0,9.0,84,0.00,,,0.00,weatherlink.com 1.10,2013-09-26 01:52:00,
2013-09-25 22:07:00,61.7,57.0,29.92,East,79,5.0,9.0,83,0.00,,,0.00,weatherlink.com 1.10,2013-09-26 02:07:00,
2013-09-25 22:23:00,61.7,57.0,29.92,East,82,8.0,8.0,84,0.00,,,0.00,weatherlink.com 1.10,2013-09-26 02:23:00,
2013-09-25 22:38:00,61.5,56.0,29.93,ENE,72,5.0,9.0,83,0.00,,,0.00,weatherlink.com 1.10,2013-09-26 02:38:00,
2013-09-25 22:53:00,61.4,56.0,29.93,East,84,6.0,9.0,83,0.00,,,0.00,weatherlink.com 1.10,2013-09-26 02:53:00,
2013-09-25 23:08:00,61.2,56.0,29.93,ENE,75,9.0,9.0,82,0.00,,,0.00,weatherlink.com 1.10,2013-09-26 03:08:00,
2013-09-25 23:23:00,61.1,56.0,29.93,ENE,64,6.0,9.0,82,0.00,,,0.00,weatherlink.com 1.10,2013-09-26 03:23:00,
2013-09-25 23:38:00,61.1,56.0,29.93,East,83,5.0,8.0,82,0.00,,,0.00,weatherlink.com 1.10,2013-09-26 03:38:00,
2013-09-25 23:53:00,61.0,56.0,29.93,East,85,7.0,10.0,83,0.00,,,0.00,weatherlink.com 1.10,2013-09-26 03:53:00,